Sault Ste Marie, MI

1:46 AM EST on November 18, 2017 (GMT -0500)
Sault Ste Marie Municipal / Sanderson Field

Weather History for KANJ - October, 2013

Change the Weather History Date:

Wednesday, October 2, 2013

  Actual Average Record
Temperature  
Mean Temperature 58 °F 51 °F  
Max Temperature 67 °F 60 °F 81 °F (1922)
Min Temperature 48 °F 42 °F 25 °F (1974)
Degree Days  
Heating Degree Days 7 14  
Month to date heating degree days 9 28  
Since 1 July heating degree days 378 429  
Cooling Degree Days 0 0  
Month to date cooling degree days 0 0  
Year to date cooling degree days 266 195  
Growing Degree Days 8 (Base 50)    
Moisture  
Dew Point 44 °F    
Average Humidity 67    
Maximum Humidity 100    
Minimum Humidity 34    
Precipitation  
Precipitation 0.00 in 0.13 in 0.66 in (2014)
Month to date precipitation 0.00 0.26  
Year to date precipitation 35.11 23.25  
Snow  
Snow 0.00 in 0.00 in 0.50 in (1993)
Month to date snowfall 0.0 0.0  
Since 1 July snowfall 0.0 T  
Snow Depth 0.00 in    
Sea Level Pressure  
Sea Level Pressure 29.95 in    
Wind  
Wind Speed 8 mph (West)    
Max Wind Speed 17 mph    
Max Gust Speed 26 mph    
Visibility 9 miles    
Events Fog    
T = Trace of Precipitation, MM = Missing Value Source: NWS Daily Summary

Daily Weather History Graph

Daily Weather History Graph

Search for Another Location

Airport or City:

Trip Planner

Search our weather history database for the weather conditions in past years. The results will help you decide how hot, cold, wet, or windy it might be!

Date:

Astronomy

Oct. 02, 2013 Rise Set
Actual Time 7:37 AM EDT 7:14 PM EDT
Civil Twilight 7:07 AM EDT 7:44 PM EDT
Nautical Twilight 6:32 AM EDT 8:19 PM EDT
Astronomical Twilight 5:57 AM EDT 8:55 PM EDT
Moon 5:03 AM EDT (10/2) 5:55 PM EDT (10/2)
Length of Visible Light 12h 37m
Length of Day
11h 37m
Waning Crescent, 6% of the Moon is Illuminated
Oct 2
Waning Crescent
Oct 4
New
Oct 11
First Quarter
Oct 18
Full
Oct 26
Last Quarter

Hourly Weather History & Observations

Time (EDT) Temp. Dew Point Humidity Pressure Visibility Wind Dir Wind Speed Gust Speed Precip Events Conditions
12:06 AM 59.0 °F 57.0 °F 93% 29.80 in 0.8 mi Calm Calm - N/A   Overcast
12:55 AM 55.9 °F 55.0 °F 97% 29.80 in 0.2 mi SSW 3.5 mph - N/A Fog Fog
1:27 AM 54.0 °F 53.1 °F 97% 29.82 in 1.2 mi South 3.5 mph - N/A   Scattered Clouds
1:31 AM 54.0 °F 53.1 °F 97% 29.82 in 3.0 mi Calm Calm - N/A   Partly Cloudy
1:55 AM 53.1 °F 51.1 °F 93% 29.82 in 9.0 mi West 5.8 mph - N/A   Clear
2:55 AM 60.1 °F 45.0 °F 57% 29.84 in 10.0 mi West 13.8 mph - N/A   Clear
3:55 AM 59.0 °F 45.0 °F 60% 29.85 in 10.0 mi WNW 9.2 mph - N/A   Clear
4:55 AM 57.9 °F 42.1 °F 56% 29.86 in 10.0 mi West 11.5 mph - N/A   Clear
5:55 AM 57.0 °F 42.1 °F 57% 29.89 in 10.0 mi West 10.4 mph - N/A   Clear
6:55 AM 54.0 °F 42.1 °F 64% 29.90 in 10.0 mi West 8.1 mph - N/A   Clear
7:55 AM 55.9 °F 43.0 °F 62% 29.93 in 10.0 mi West 9.2 mph - N/A   Clear
8:55 AM 57.9 °F 46.0 °F 65% 29.94 in 10.0 mi West 9.2 mph - N/A   Clear
9:55 AM 60.1 °F 46.0 °F 60% 29.96 in 10.0 mi WNW 12.7 mph - N/A   Clear
10:55 AM 62.1 °F 46.0 °F 56% 29.98 in 10.0 mi West 12.7 mph 21.9 mph N/A   Clear
11:55 AM 64.0 °F 44.1 °F 48% 30.00 in 10.0 mi West 12.7 mph 20.7 mph N/A   Clear
12:55 PM 66.0 °F 44.1 °F 45% 30.00 in 10.0 mi WNW 16.1 mph 26.5 mph N/A   Clear
1:55 PM 66.9 °F 39.9 °F 37% 30.02 in 10.0 mi WNW 12.7 mph 20.7 mph N/A   Clear
2:55 PM 66.9 °F 39.9 °F 37% 30.02 in 10.0 mi WNW 11.5 mph 21.9 mph N/A   Clear
3:55 PM 66.9 °F 39.9 °F 37% 30.02 in 10.0 mi WNW 12.7 mph - N/A   Clear
4:55 PM 66.0 °F 37.9 °F 36% 30.03 in 10.0 mi NW 10.4 mph - N/A   Clear
5:55 PM 64.9 °F 37.9 °F 37% 30.03 in 10.0 mi NW 8.1 mph - N/A   Clear
6:55 PM 63.0 °F 39.0 °F 41% 30.03 in 10.0 mi NW 3.5 mph - N/A   Clear
7:55 PM 55.0 °F 43.0 °F 64% 30.04 in 10.0 mi Calm Calm - N/A   Clear
8:55 PM 53.1 °F 43.0 °F 69% 30.04 in 10.0 mi Calm Calm - N/A   Clear
9:55 PM 51.1 °F 43.0 °F 74% 30.05 in 10.0 mi South 3.5 mph - N/A   Clear
10:55 PM 53.1 °F 44.1 °F 71% 30.06 in 10.0 mi Calm Calm - N/A   Clear
11:55 PM 50.0 °F 43.0 °F 77% 30.06 in 10.0 mi Calm Calm - N/A   Clear